CAPE
658 149 357 281 162 91 11 40 1 1 43 34 22 0 0 0 0 4 12 20 13 1 1 1 7 13 17 20 21 9 25 25 23
339 280 329 119 91 89 8 1 0 0 0 0 0 0 0 0 0 0 0 4 2 8 8 5 11 7 9 8 21 21 3 11 6
322 287 209 78 50 28 5 3 0 0 0 0 0 0 0 0 0 0 0 5 3 5 8 9 17 46 37 21 9 11 8 8 12
304 275 116 72 6 0 0 0 0 20 76 0 0 0 0 0 0 0 10 6 4 1 17 18 37 15 10 21 19 5 10 10 26
283 155 33 27 0 0 0 0 20 130 132 19 0 5 0 18 32 36 22 14 5 17 22 1 30 30 30 20 11 29 38 41 10
0 3 74 33 0 3 12 85 172 66 32 25 24 37 47 53 51 35 28 33 6 1 0 0 41 16 6 6 8 16 1 1 5
1 2 72 23 0 10 41 37 62 53 26 44 49 40 48 64 63 40 44 41 15 16 0 2 38 12 10 17 21 2 3 16 8
37 64 50 2 19 25 98 50 60 22 21 33 42 36 52 43 22 7 11 29 34 42 23 63 12 15 29 16 7 12 14 10 4
107 80 10 10 22 0 54 38 40 49 44 29 25 47 43 35 33 18 0 18 46 15 13 53 41 17 28 27 20 21 12 3 2
124 73 18 10 0 0 22 21 26 54 49 34 44 44 37 41 30 25 1 6 27 23 49 46 39 30 37 20 27 7 6 4 4
85 48 20 12 6 6 15 33 24 39 59 42 52 34 16 12 3 17 36 20 4 20 41 56 53 47 42 46 16 8 4 5 6
0 16 21 25 27 18 13 40 30 14 25 45 47 20 12 4 2 24 44 37 21 34 28 51 57 59 51 47 14 10 5 6 6
0 7 18 34 36 25 33 26 29 31 3 34 19 15 7 7 3 15 39 39 23 33 19 33 47 46 44 54 21 12 6 8 7
4 6 13 19 26 28 31 31 34 33 22 25 11 8 10 6 7 17 16 34 37 35 24 13 22 29 38 41 26 15 3 5 7
11 8 12 10 17 12 22 8 13 31 23 9 13 1 6 15 8 24 15 17 15 19 17 28 20 25 6 34 46 10 2 4 5
0 1 4 7 10 16 15 1 0 0 7 19 9 0 0 8 5 13 17 22 19 13 19 24 45 23 28 9 28 30 9 0 1
0 0 0 0 11 34 32 14 0 0 0 0 3 2 0 2 3 8 8 16 18 14 1 11 16 28 24 24 18 31 27 17 1
1 0 0 0 1 17 38 30 3 0 0 0 0 1 0 0 0 0 0 2 5 11 0 0 9 23 32 47 29 36 25 41 40
2 1 0 0 0 0 6 1 0 1 0 0 0 0 0 0 0 0 0 0 0 0 0 2 2 2 19 25 36 31 40 36 51
0 0 1 0 0 0 0 0 0 0 0 0 0 0 0 0 0 0 0 0 0 0 0 0 0 4 7 10 19 13 38 47 57
CIN
-0 -13 -5 -20 -28 -45 -147 -88 -0 -2 -67 -50 -49 -0 -0 -0 -0 -1 -5 -3 -0 -0 -0 -0 -0 -1 -2 -1 -0 -0 -1 -0 -0
-12 -19 -17 -59 -55 -40 -43 -0 -0 -0 -0 -0 -0 -0 -0 -0 -0 -0 -1 -0 -0 -0 -0 -1 -0 -1 -0 -1 -5 -5 -4 -8 -2
-15 -14 -31 -64 -71 -83 -17 -0 -0 -0 -0 -0 -0 -0 -0 -0 -0 -0 -0 -0 -0 -0 -0 -1 -2 -0 -0 -0 -1 -1 -0 -1 -1
-8 -13 -29 -50 -80 -0 -0 -0 -0 -15 -44 -0 -0 -0 -0 -0 -0 -2 -6 -2 -0 -0 -2 -0 -0 -3 -5 -2 -2 -1 -1 -1 -0
-1 -15 -47 -58 -0 -32 -37 -0 -5 -35 -42 -14 -1 -32 -1 -5 -3 -1 -3 -3 -1 -0 -3 -2 -2 -4 -1 -6 -4 -2 -0 -0 -5
-22 -6 -4 -18 -0 -47 -27 -22 -14 -40 -13 -27 -35 -37 -13 -8 -10 -7 -6 -1 -0 -0 -0 -0 -0 -0 -6 -2 -0 -1 -2 -8 -3
-33 -8 -14 -54 -0 -12 -19 -3 -4 -6 -13 -21 -35 -38 -29 -16 -9 -7 -7 -4 -1 -1 -1 -0 -0 -6 -5 -5 -2 -9 -2 -5 -2
-33 -7 -3 -4 -3 -3 -26 -2 -6 -10 -21 -33 -30 -35 -28 -31 -20 -18 -13 -6 -0 -0 -2 -1 -5 -7 -3 -3 -9 -8 -6 -4 -1
-13 -6 -9 -12 -3 -0 -12 -6 -15 -19 -27 -38 -21 -29 -40 -48 -33 -16 -0 -8 -2 -0 -9 -3 -14 -8 -5 -4 -4 -3 -6 -1 -2
-20 -25 -37 -25 -0 -0 -37 -29 -20 -19 -30 -48 -34 -33 -35 -32 -30 -17 -4 -10 -8 -1 -9 -5 -0 -8 -4 -3 -2 -7 -2 -1 -0
-27 -50 -31 -34 -36 -63 -70 -46 -40 -27 -32 -42 -30 -36 -41 -48 -35 -19 -15 -14 -9 -8 -4 -11 -1 -2 -0 -4 -5 -3 -1 -0 -0
-0 -29 -32 -41 -49 -62 -62 -43 -40 -42 -48 -36 -24 -36 -50 -68 -38 -10 -7 -23 -17 -17 -8 -6 -1 -0 -0 -0 -5 -2 -1 -0 -0
-0 -30 -29 -35 -35 -49 -55 -56 -32 -40 -39 -37 -53 -56 -60 -61 -29 -17 -11 -21 -24 -23 -11 -2 -2 -7 -2 -0 -3 -3 -0 -0 -0
-20 -34 -36 -32 -38 -47 -39 -38 -34 -44 -48 -40 -39 -52 -54 -51 -35 -27 -18 -17 -21 -17 -27 -16 -9 -3 -2 -1 -0 -7 -0 -0 -0
-47 -44 -30 -32 -33 -42 -45 -32 -51 -42 -41 -66 -77 -16 -65 -70 -48 -30 -24 -23 -16 -18 -12 -12 -10 -6 -6 -4 -3 -4 -1 -0 -0
-0 -49 -47 -62 -44 -42 -42 -7 -0 -47 -100 -76 -84 -0 -0 -91 -72 -62 -49 -32 -28 -23 -9 -19 -9 -8 -10 -9 -6 -1 -10 -0 -0
-0 -0 -0 -38 -42 -34 -33 -36 -0 -0 -0 -0 -50 -25 -13 -90 -100 -103 -66 -41 -38 -35 -26 -25 -25 -15 -6 -15 -19 -4 -1 -1 -0
-0 -0 -0 -0 -22 -39 -29 -25 -31 -0 -0 -0 -0 -8 -0 -0 -0 -0 -10 -32 -55 -43 -20 -17 -19 -25 -20 -10 -14 -6 -9 -2 -0
-0 -0 -0 -0 -0 -3 -56 -13 -3 -19 -0 -0 -0 -0 -0 -0 -0 -0 -0 -0 -0 -0 -0 -24 -17 -20 -30 -24 -14 -12 -9 -9 -1
-0 -0 -0 -0 -0 -0 -0 -0 -0 -0 -0 -0 -0 -0 -0 -0 -0 -0 -0 -0 -0 -0 -0 -3 -1 -34 -38 -42 -40 -37 -22 -12 -6
Wind_Speed
9 8 1 2 6 8 10 10 8 8 9 10 11 12 12 10 9 7 7 8 9 9 11 12 11 10 10 10 12 13 12 14 13
12 5 3 1 3 6 8 8 7 7 7 8 8 8 9 8 7 6 6 6 7 7 8 9 9 8 8 8 8 9 11 10 10
7 5 4 2 1 4 6 6 6 6 6 6 6 6 7 7 7 6 6 6 6 6 7 7 8 9 9 9 8 9 10 10 11
6 6 6 5 3 3 4 5 5 5 5 5 6 7 7 7 7 8 7 7 7 7 6 6 7 7 7 6 7 8 9 10 10
10 8 7 8 6 4 4 4 5 4 4 4 5 5 6 5 6 7 6 8 8 7 6 6 6 6 6 6 6 6 8 8 9
10 13 12 12 8 7 6 7 5 4 4 4 3 4 4 4 4 4 5 5 7 6 5 4 3 6 5 5 4 6 5 6 7
11 12 10 10 8 8 8 10 8 6 6 4 2 4 3 4 5 6 4 3 5 6 6 4 5 4 4 4 4 5 6 6 6
14 15 15 14 12 11 12 11 12 10 7 5 5 6 7 6 7 8 6 4 3 4 4 4 3 3 4 3 5 6 5 6 6
15 17 17 16 15 13 14 13 13 12 10 8 6 7 7 7 8 9 9 8 4 3 4 2 2 4 4 5 6 6 6 6 6
17 17 17 17 16 16 15 15 15 14 13 13 9 7 8 10 11 12 11 10 7 6 3 2 3 3 3 5 5 6 8 7 7
20 19 18 18 17 16 15 16 17 17 14 13 11 10 11 12 12 14 14 11 11 7 5 3 5 4 5 5 6 8 8 8 7
21 22 21 19 18 17 16 18 19 19 17 14 12 13 14 15 14 15 16 13 12 12 10 4 5 6 6 6 7 9 10 10 10
22 22 22 21 19 19 19 20 20 19 19 17 17 17 18 19 16 16 16 15 15 14 11 11 7 6 7 8 9 10 12 12 12
24 21 20 18 19 19 20 22 21 20 20 18 19 20 20 20 18 19 17 17 17 17 20 18 14 11 9 9 10 10 14 14 15
23 21 19 17 18 20 21 21 22 22 21 22 23 23 22 22 22 21 21 19 19 21 21 21 18 14 13 11 11 12 12 16 16
22 20 19 20 21 21 22 22 25 24 21 23 26 27 26 25 24 23 23 22 22 22 23 23 21 20 18 16 14 13 13 13 16
20 21 21 20 20 21 19 21 22 25 23 25 26 30 29 28 26 24 25 25 24 24 25 25 25 24 22 22 20 17 16 15 15
17 17 18 17 19 21 21 21 22 24 26 28 27 29 31 28 27 28 27 26 25 25 26 26 27 27 26 24 24 21 20 20 18
9 9 11 15 18 21 21 21 22 23 25 26 30 29 27 29 31 30 29 27 28 28 27 28 28 27 27 26 26 25 24 23 25
10 11 11 14 15 19 20 22 24 23 24 24 25 32 31 29 29 31 28 30 30 30 30 29 29 29 30 30 29 27 26 26 27
Wind_Direction
271 271 184 98 59 60 56 56 48 52 55 59 66 69 69 59 47 31 30 31 36 32 40 46 38 38 47 45 49 49 50 48 47
267 254 175 137 57 48 51 45 29 32 39 50 61 63 64 56 34 18 3 360 17 26 31 42 36 33 43 37 35 40 41 37 35
259 213 197 230 39 48 46 31 17 11 26 40 51 58 60 51 49 26 20 30 25 22 39 28 46 52 47 50 30 44 40 41 45
241 216 232 253 284 356 27 11 10 8 30 39 47 60 64 65 51 54 50 53 44 40 47 46 51 42 34 32 35 41 46 47 49
256 240 246 256 276 300 335 344 345 15 28 34 42 55 60 45 48 60 48 68 52 51 48 41 56 49 43 31 24 6 47 45 38
256 256 257 260 269 283 295 298 317 344 6 16 42 62 17 21 4 30 57 51 57 36 27 10 41 62 45 11 6 25 20 6 14
255 257 262 266 271 278 286 287 288 296 301 317 357 312 6 341 333 333 14 40 49 60 42 33 77 47 21 329 346 343 341 5 358
258 261 265 266 267 278 282 283 279 280 280 289 289 293 300 305 308 310 317 346 24 37 39 60 54 18 337 314 312 322 332 345 356
258 260 263 268 273 274 276 278 277 273 272 278 279 285 290 294 302 304 303 305 323 14 8 49 31 326 312 311 304 313 318 327 335
255 260 261 265 269 270 269 272 271 270 270 274 278 272 282 288 292 297 291 292 297 305 7 339 331 317 309 310 311 310 308 313 323
256 257 259 263 265 268 268 268 268 267 268 270 271 271 279 286 293 291 289 286 282 289 300 282 291 297 291 300 299 301 302 306 311
256 256 257 261 262 265 267 268 268 267 267 267 266 270 275 280 289 290 287 283 279 286 286 275 274 281 281 288 290 294 293 296 298
258 258 258 257 260 263 265 266 265 265 265 264 268 269 273 276 281 286 286 281 280 281 281 280 269 257 264 269 282 288 288 290 291
257 258 258 255 258 264 268 264 264 262 262 264 268 272 271 273 276 278 280 279 277 281 279 280 280 266 266 270 276 281 283 285 287
257 257 251 253 262 265 268 266 264 264 260 266 270 270 273 273 273 274 275 275 276 278 281 278 277 268 270 275 268 275 278 282 284
251 251 250 257 263 268 267 266 260 262 263 266 269 273 273 272 271 273 274 274 274 276 278 278 276 273 270 274 274 267 271 279 282
249 247 253 258 264 268 267 265 263 265 261 264 269 270 271 271 271 271 272 273 274 274 275 278 275 274 274 275 275 269 272 275 278
254 253 256 261 265 267 268 267 267 266 262 264 270 271 270 272 272 271 271 272 273 271 273 276 277 275 274 273 273 269 271 274 276
254 260 276 281 280 272 272 274 274 272 269 268 268 273 278 272 275 275 270 272 274 273 274 273 275 276 275 273 273 272 269 270 276
307 309 308 302 299 291 284 279 274 280 276 275 272 269 271 278 279 278 276 275 275 276 275 274 274 275 275 276 275 272 269 267 271